EZY173 EGHI-EGJJ

Flight info

Callsign EZY173
Flight time 0h 25m
Altitude 12000
Route NEDUL Q41 ORTAC
Aircraft A320/M-SDE3FGHIRWY/LB1

Departure

Time 2026-05-07 21:59
Airport Southampton Airport (EGHI)

Arrival

Time 2026-05-07 22:24
Airport Jersey Airport (EGJJ)
Time Latitude Longitude Altitude Speed Heading
2026-05-07 21:48 50.94959 -1.36057 39 ft 0 kts 19°
2026-05-07 21:54 50.94960 -1.36056 39 ft 0 kts 19°
2026-05-07 21:54 50.94952 -1.36061 39 ft 3 kts 19°
2026-05-07 21:54 50.94935 -1.36070 37 ft 3 kts 19°
2026-05-07 21:54 50.94919 -1.36080 38 ft 2 kts 61°
2026-05-07 21:55 50.94915 -1.36097 35 ft 0 kts 105°
2026-05-07 21:55 50.94915 -1.36096 38 ft 1 kts 105°
2026-05-07 21:56 50.94891 -1.36047 39 ft 6 kts 143°
2026-05-07 21:56 50.94841 -1.36040 39 ft 10 kts 192°
2026-05-07 21:56 50.94767 -1.36084 39 ft 12 kts 201°
2026-05-07 21:56 50.94680 -1.36133 39 ft 14 kts 193°
2026-05-07 21:57 50.94592 -1.36094 38 ft 13 kts 136°
2026-05-07 21:57 50.94546 -1.35982 38 ft 12 kts 142°
2026-05-07 21:57 50.94444 -1.36002 38 ft 18 kts 200°
2026-05-07 21:57 50.94352 -1.36044 37 ft 12 kts 176°
2026-05-07 21:58 50.94315 -1.36054 38 ft 3 kts 260°
2026-05-07 21:58 50.94328 -1.36066 35 ft 2 kts 355°
2026-05-07 21:58 50.94333 -1.36063 34 ft 0 kts 14°
2026-05-07 21:58 50.94356 -1.36052 37 ft 21 kts 17°
2026-05-07 21:59 50.94789 -1.35815 37 ft 105 kts 19°
2026-05-07 21:59 50.95711 -1.35297 61 ft 171 kts 20°
2026-05-07 21:59 50.96852 -1.34629 797 ft 179 kts 21°
2026-05-07 21:59 50.98079 -1.34061 1667 ft 186 kts
2026-05-07 22:00 50.99333 -1.34195 2388 ft 182 kts 339°
2026-05-07 22:00 51.00330 -1.35404 2904 ft 185 kts 299°
2026-05-07 22:00 51.00618 -1.37365 3412 ft 188 kts 261°
2026-05-07 22:00 51.00086 -1.39240 3947 ft 191 kts 227°
2026-05-07 22:01 50.99021 -1.40559 4415 ft 202 kts 206°
2026-05-07 22:01 50.97600 -1.41252 4689 ft 228 kts 191°
2026-05-07 22:01 50.95951 -1.41738 5059 ft 253 kts 192°
2026-05-07 22:01 50.94190 -1.42358 5749 ft 264 kts 193°
2026-05-07 22:02 50.92390 -1.43067 6645 ft 268 kts 195°
2026-05-07 22:02 50.90577 -1.43835 7548 ft 271 kts 195°
2026-05-07 22:02 50.88752 -1.44640 8415 ft 273 kts 195°
2026-05-07 22:02 50.86918 -1.45470 9314 ft 276 kts 196°
2026-05-07 22:03 50.85062 -1.46322 10137 ft 279 kts 196°
2026-05-07 22:03 50.83139 -1.47209 10529 ft 299 kts 196°
2026-05-07 22:03 50.81064 -1.48168 10745 ft 322 kts 196°
2026-05-07 22:03 50.78833 -1.49198 10904 ft 345 kts 196°
2026-05-07 22:04 50.76455 -1.50291 11034 ft 367 kts 196°
2026-05-07 22:04 50.73952 -1.51438 11350 ft 380 kts 196°
2026-05-07 22:04 50.71385 -1.52611 11878 ft 391 kts 196°
2026-05-07 22:04 50.68708 -1.53831 12046 ft 410 kts 196°
2026-05-07 22:05 50.65999 -1.55063 13187 ft 399 kts 196°
2026-05-07 22:05 50.63403 -1.56449 14142 ft 396 kts 201°
2026-05-07 22:05 50.60840 -1.58148 13785 ft 403 kts 205°
2026-05-07 22:05 50.58304 -1.60069 13374 ft 404 kts 206°
2026-05-07 22:06 50.55789 -1.62044 12976 ft 403 kts 206°
2026-05-07 22:06 50.53278 -1.63973 12585 ft 401 kts 205°
2026-05-07 22:06 50.50760 -1.65827 12204 ft 398 kts 205°
2026-05-07 22:06 50.48238 -1.67605 12033 ft 397 kts 204°
2026-05-07 22:07 50.45704 -1.69343 12067 ft 398 kts 203°
2026-05-07 22:07 50.43164 -1.71063 12064 ft 397 kts 203°
2026-05-07 22:07 50.40626 -1.72778 12065 ft 397 kts 203°
2026-05-07 22:07 50.38086 -1.74501 12068 ft 398 kts 204°
2026-05-07 22:08 50.35551 -1.76228 12067 ft 398 kts 204°
2026-05-07 22:08 50.33017 -1.77961 12067 ft 397 kts 204°
2026-05-07 22:08 50.30484 -1.79694 12067 ft 398 kts 204°
2026-05-07 22:08 50.27949 -1.81435 12067 ft 398 kts 204°
2026-05-07 22:09 50.25414 -1.83176 12069 ft 398 kts 204°
2026-05-07 22:09 50.22883 -1.84912 12072 ft 398 kts 204°
2026-05-07 22:09 50.20349 -1.86645 12076 ft 397 kts 204°
2026-05-07 22:09 50.17848 -1.88346 12072 ft 397 kts 204°
2026-05-07 22:10 50.15285 -1.90082 12077 ft 397 kts 204°
2026-05-07 22:10 50.12752 -1.91797 12076 ft 396 kts 204°
2026-05-07 22:10 50.10226 -1.93511 12079 ft 396 kts 204°
2026-05-07 22:10 50.07700 -1.95225 12080 ft 396 kts 204°
2026-05-07 22:11 50.05210 -1.96914 12079 ft 396 kts 204°
2026-05-07 22:11 50.02688 -1.98619 12077 ft 395 kts 204°
2026-05-07 22:11 50.00164 -2.00324 12076 ft 395 kts 204°
2026-05-07 22:11 49.97644 -2.02028 12072 ft 395 kts 204°
2026-05-07 22:12 49.95124 -2.03732 12049 ft 395 kts 204°
2026-05-07 22:12 49.92606 -2.05433 12053 ft 395 kts 204°
2026-05-07 22:12 49.90087 -2.07130 12055 ft 395 kts 204°
2026-05-07 22:12 49.87564 -2.08822 12055 ft 395 kts 204°
2026-05-07 22:13 49.85046 -2.10509 11970 ft 394 kts 204°
2026-05-07 22:13 49.82546 -2.12183 11584 ft 389 kts 204°
2026-05-07 22:13 49.80072 -2.13838 11201 ft 386 kts 204°
2026-05-07 22:13 49.77614 -2.15485 10830 ft 383 kts 204°
2026-05-07 22:14 49.75177 -2.17116 10463 ft 381 kts 204°
2026-05-07 22:14 49.72753 -2.18735 10099 ft 378 kts 204°
2026-05-07 22:14 49.70319 -2.20229 9710 ft 376 kts 198°
2026-05-07 22:14 49.67815 -2.21352 9306 ft 374 kts 196°
2026-05-07 22:15 49.65332 -2.22453 8902 ft 365 kts 196°
2026-05-07 22:15 49.62923 -2.23525 8509 ft 358 kts 196°
2026-05-07 22:15 49.60541 -2.24587 8129 ft 355 kts 196°
2026-05-07 22:15 49.58176 -2.25640 7744 ft 352 kts 196°
2026-05-07 22:16 49.55827 -2.26687 7361 ft 351 kts 195°
2026-05-07 22:16 49.53487 -2.27725 6984 ft 349 kts 195°
2026-05-07 22:16 49.51156 -2.28757 6611 ft 348 kts 195°
2026-05-07 22:16 49.48839 -2.29786 6213 ft 345 kts 195°
2026-05-07 22:17 49.46544 -2.30806 5821 ft 339 kts 195°
2026-05-07 22:17 49.44327 -2.31792 5482 ft 324 kts 195°
2026-05-07 22:17 49.42714 -2.32509 5265 ft 314 kts 195°
2026-05-07 22:18 49.42256 -2.32712 5205 ft 311 kts 195°
2026-05-07 22:18 49.38253 -2.34476 4638 ft 287 kts 195°
2026-05-07 22:18 49.36411 -2.35289 4355 ft 265 kts 195°
2026-05-07 22:19 49.34702 -2.36045 4098 ft 255 kts 195°
2026-05-07 22:19 49.33012 -2.36788 3847 ft 251 kts 194°
2026-05-07 22:19 49.31332 -2.37524 3594 ft 250 kts 194°
2026-05-07 22:19 49.29686 -2.38243 3349 ft 242 kts 194°
2026-05-07 22:20 49.28101 -2.38939 3152 ft 232 kts 194°
2026-05-07 22:20 49.26575 -2.39610 2941 ft 224 kts 194°
2026-05-07 22:20 49.25100 -2.40254 2734 ft 217 kts 192°
2026-05-07 22:20 49.23643 -2.40470 2576 ft 204 kts 173°
2026-05-07 22:21 49.22312 -2.39982 2555 ft 194 kts 156°
2026-05-07 22:21 49.21183 -2.38940 2515 ft 188 kts 140°
2026-05-07 22:21 49.20319 -2.37460 2410 ft 187 kts 124°
2026-05-07 22:21 49.19781 -2.35658 2235 ft 188 kts 107°
2026-05-07 22:22 49.19623 -2.33679 2031 ft 187 kts 90°
2026-05-07 22:22 49.19771 -2.31749 1791 ft 178 kts 86°
2026-05-07 22:22 49.19875 -2.30533 1674 ft 169 kts 86°
2026-05-07 22:22 49.20021 -2.28800 1411 ft 160 kts 86°
2026-05-07 22:23 49.20157 -2.27181 1200 ft 149 kts 86°
2026-05-07 22:23 49.20285 -2.25663 992 ft 140 kts 86°
2026-05-07 22:23 49.20410 -2.24236 776 ft 136 kts 86°
2026-05-07 22:23 49.20539 -2.22799 611 ft 136 kts 88°
2026-05-07 22:24 49.20645 -2.21359 432 ft 135 kts 86°
2026-05-07 22:24 49.20763 -2.19989 287 ft 120 kts 84°
2026-05-07 22:24 49.20846 -2.18955 284 ft 73 kts 82°
2026-05-07 22:24 49.20885 -2.18502 281 ft 16 kts 85°
2026-05-07 22:25 49.20856 -2.18386 282 ft 9 kts 151°
2026-05-07 22:25 49.20790 -2.18395 288 ft 14 kts 205°
2026-05-07 22:25 49.20732 -2.18523 288 ft 16 kts 260°
2026-05-07 22:25 49.20718 -2.18683 287 ft 14 kts 263°
2026-05-07 22:26 49.20707 -2.18827 284 ft 13 kts 264°